C6061 KFMH-KFMH

Flight info

Callsign C6061
Flight time 0h 2m
Altitude 1000
Route KFMH KPVC KACK KMVY KEWB
Aircraft H60/M-SDFGRY/C

Departure

Time 2026-04-29 19:37
Airport Cape Cod Coast Guard Air Station (KFMH)

Arrival

Time 2026-04-29 19:40
Airport Cape Cod Coast Guard Air Station (KFMH)
Time Latitude Longitude Altitude Speed Heading
2026-04-29 18:08 41.66529 -70.52078 141 ft 0 kts 354°
2026-04-29 18:26 41.66530 -70.52078 142 ft 2 kts 353°
2026-04-29 18:26 41.66522 -70.52108 142 ft 7 kts 201°
2026-04-29 18:27 41.66465 -70.52107 142 ft 8 kts 163°
2026-04-29 18:27 41.66451 -70.52024 141 ft 12 kts 85°
2026-04-29 18:27 41.66459 -70.51904 140 ft 16 kts 85°
2026-04-29 18:27 41.66471 -70.51731 138 ft 18 kts 84°
2026-04-29 18:28 41.66471 -70.51588 137 ft 12 kts 94°
2026-04-29 18:28 41.66482 -70.51555 136 ft 0 kts 33°
2026-04-29 18:29 41.66482 -70.51556 145 ft 1 kts 33°
2026-04-29 18:29 41.66554 -70.51456 230 ft 41 kts 34°
2026-04-29 18:30 41.66871 -70.51015 419 ft 88 kts 47°
2026-04-29 18:30 41.67297 -70.50308 504 ft 103 kts 52°
2026-04-29 18:30 41.67890 -70.49781 578 ft 103 kts 29°
2026-04-29 18:30 41.68543 -70.49345 607 ft 110 kts 28°
2026-04-29 18:31 41.69205 -70.48912 637 ft 102 kts 28°
2026-04-29 18:31 41.69863 -70.48487 643 ft 105 kts 28°
2026-04-29 18:31 41.70517 -70.48033 627 ft 108 kts 28°
2026-04-29 18:31 41.71170 -70.47595 634 ft 103 kts 28°
2026-04-29 18:32 41.71835 -70.47138 645 ft 106 kts 28°
2026-04-29 18:32 41.73126 -70.46276 619 ft 105 kts 28°
2026-04-29 18:32 41.73794 -70.45815 643 ft 105 kts 28°
2026-04-29 18:33 41.74448 -70.45382 638 ft 103 kts 28°
2026-04-29 18:33 41.75104 -70.44958 631 ft 107 kts 28°
2026-04-29 18:33 41.75768 -70.44510 629 ft 111 kts 28°
2026-04-29 18:33 41.76451 -70.44056 630 ft 109 kts 28°
2026-04-29 18:34 41.77113 -70.43622 624 ft 102 kts 28°
2026-04-29 18:34 41.77542 -70.43341 625 ft 102 kts 28°
2026-04-29 18:34 41.78418 -70.42756 631 ft 105 kts 28°
2026-04-29 18:34 41.79092 -70.42313 621 ft 106 kts 28°
2026-04-29 18:35 41.79744 -70.41882 622 ft 108 kts 28°
2026-04-29 18:35 41.80402 -70.41437 623 ft 109 kts 28°
2026-04-29 18:35 41.81066 -70.40996 624 ft 105 kts 28°
2026-04-29 18:35 41.81729 -70.40550 628 ft 106 kts 28°
2026-04-29 18:36 41.82388 -70.40104 621 ft 109 kts 28°
2026-04-29 18:36 41.83050 -70.39667 624 ft 104 kts 28°
2026-04-29 18:36 41.83713 -70.39226 618 ft 106 kts 28°
2026-04-29 18:36 41.84396 -70.38781 607 ft 107 kts 28°
2026-04-29 18:37 41.85050 -70.38338 614 ft 106 kts 28°
2026-04-29 18:37 41.85722 -70.37891 601 ft 108 kts 28°
2026-04-29 18:37 41.86375 -70.37446 595 ft 107 kts 28°
2026-04-29 18:37 41.87035 -70.36992 598 ft 110 kts 28°
2026-04-29 18:38 41.87692 -70.36543 603 ft 102 kts 28°
2026-04-29 18:38 41.88337 -70.36100 608 ft 106 kts 28°
2026-04-29 18:38 41.89005 -70.35655 598 ft 105 kts 28°
2026-04-29 18:38 41.89650 -70.35219 596 ft 106 kts 28°
2026-04-29 18:39 41.90315 -70.34767 601 ft 104 kts 28°
2026-04-29 18:39 41.90963 -70.34322 600 ft 108 kts 28°
2026-04-29 18:39 41.91569 -70.34060 598 ft 91 kts 15°
2026-04-29 18:39 41.92272 -70.33852 599 ft 104 kts 15°
2026-04-29 18:40 41.93013 -70.33636 606 ft 108 kts 15°
2026-04-29 18:40 41.93746 -70.33431 590 ft 109 kts 15°
2026-04-29 18:40 41.94479 -70.33223 593 ft 107 kts 15°
2026-04-29 18:40 41.95227 -70.33010 605 ft 105 kts 15°
2026-04-29 18:41 41.97473 -70.32355 603 ft 109 kts 15°
2026-04-29 18:41 41.98232 -70.32132 602 ft 114 kts 15°
2026-04-29 18:42 41.98983 -70.31920 599 ft 109 kts 15°
2026-04-29 18:42 41.99736 -70.31716 607 ft 107 kts 15°
2026-04-29 18:42 42.00477 -70.31506 610 ft 110 kts 15°
2026-04-29 18:42 42.01235 -70.31314 601 ft 110 kts 15°
2026-04-29 18:43 42.01957 -70.31105 630 ft 110 kts 15°
2026-04-29 18:43 42.02695 -70.30867 635 ft 107 kts 18°
2026-04-29 18:43 42.03394 -70.30581 647 ft 110 kts 18°
2026-04-29 18:43 42.04102 -70.30288 632 ft 111 kts 24°
2026-04-29 18:44 42.04733 -70.29586 640 ft 127 kts 51°
2026-04-29 18:44 42.05237 -70.28538 632 ft 137 kts 64°
2026-04-29 18:44 42.05567 -70.27526 636 ft 106 kts 64°
2026-04-29 18:44 42.05869 -70.26620 450 ft 105 kts 62°
2026-04-29 18:45 42.06113 -70.25829 636 ft 72 kts 63°
2026-04-29 18:45 42.06220 -70.25265 537 ft 63 kts 62°
2026-04-29 18:45 42.06337 -70.24663 535 ft 77 kts 71°
2026-04-29 18:45 42.06421 -70.23902 388 ft 83 kts 56°
2026-04-29 18:46 42.06677 -70.23305 344 ft 64 kts 54°
2026-04-29 18:46 42.06863 -70.22879 186 ft 48 kts 53°
2026-04-29 18:46 42.07017 -70.22550 92 ft 32 kts 52°
2026-04-29 18:46 42.07075 -70.22425 68 ft 15 kts 47°
2026-04-29 18:47 42.07121 -70.22313 34 ft 9 kts 49°
2026-04-29 18:47 42.07133 -70.22285 11 ft 0 kts 46°
2026-04-29 18:47 42.07163 -70.22226 42 ft 34 kts 52°
2026-04-29 18:47 42.07397 -70.21684 207 ft 85 kts 58°
2026-04-29 18:48 42.07253 -70.21155 254 ft 86 kts 196°
2026-04-29 18:48 42.06847 -70.21677 320 ft 82 kts 241°
2026-04-29 18:48 42.06542 -70.22307 369 ft 83 kts 246°
2026-04-29 18:48 42.06278 -70.23052 505 ft 95 kts 255°
2026-04-29 18:49 42.06415 -70.23643 235 ft 61 kts 353°
2026-04-29 18:49 42.06712 -70.23307 266 ft 62 kts 49°
2026-04-29 18:49 42.06890 -70.22806 207 ft 68 kts 50°
2026-04-29 18:49 42.07089 -70.22369 50 ft 12 kts 43°
2026-04-29 18:50 42.07128 -70.22296 26 ft 6 kts 44°
2026-04-29 18:50 42.07135 -70.22283 9 ft 0 kts 39°
2026-04-29 18:50 42.07191 -70.22178 114 ft 48 kts 54°
2026-04-29 18:50 42.07467 -70.21486 415 ft 105 kts 62°
2026-04-29 18:51 42.07246 -70.20543 445 ft 120 kts 123°
2026-04-29 18:51 42.06718 -70.19645 477 ft 122 kts 124°
2026-04-29 18:51 42.06191 -70.18750 463 ft 121 kts 124°
2026-04-29 18:51 42.05668 -70.17862 450 ft 120 kts 124°
2026-04-29 18:52 42.05151 -70.16957 469 ft 123 kts 124°
2026-04-29 18:52 42.04546 -70.16138 460 ft 127 kts 145°
2026-04-29 18:52 42.03757 -70.15652 467 ft 127 kts 154°
2026-04-29 18:52 42.02948 -70.15193 464 ft 126 kts 154°
2026-04-29 18:53 42.02142 -70.14715 463 ft 125 kts 154°
2026-04-29 18:53 42.01335 -70.14247 463 ft 127 kts 154°
2026-04-29 18:53 42.00526 -70.13780 462 ft 127 kts 154°
2026-04-29 18:53 41.99715 -70.13318 453 ft 127 kts 154°
2026-04-29 18:54 41.98907 -70.12852 460 ft 127 kts 154°
2026-04-29 18:54 41.98099 -70.12398 458 ft 127 kts 154°
2026-04-29 18:54 41.97272 -70.11945 480 ft 125 kts 154°
2026-04-29 18:54 41.96476 -70.11486 487 ft 125 kts 154°
2026-04-29 18:55 41.95678 -70.11019 498 ft 126 kts 154°
2026-04-29 18:55 41.94864 -70.10561 497 ft 127 kts 154°
2026-04-29 18:55 41.94072 -70.10098 495 ft 124 kts 154°
2026-04-29 18:55 41.93257 -70.09648 492 ft 127 kts 154°
2026-04-29 18:56 41.92465 -70.09211 488 ft 128 kts 154°
2026-04-29 18:56 41.91655 -70.08758 488 ft 125 kts 154°
2026-04-29 18:56 41.90855 -70.08294 487 ft 126 kts 154°
2026-04-29 18:56 41.90049 -70.07820 483 ft 125 kts 154°
2026-04-29 18:57 41.89507 -70.07516 483 ft 126 kts 154°
2026-04-29 18:57 41.88720 -70.07051 464 ft 123 kts 154°
2026-04-29 18:57 41.87926 -70.06575 469 ft 123 kts 154°
2026-04-29 18:57 41.87145 -70.06120 471 ft 123 kts 154°
2026-04-29 18:58 41.86378 -70.05661 470 ft 121 kts 154°
2026-04-29 18:58 41.85600 -70.05186 469 ft 123 kts 154°
2026-04-29 18:58 41.84765 -70.04895 472 ft 126 kts 176°
2026-04-29 18:58 41.84240 -70.04860 464 ft 126 kts 175°
2026-04-29 19:01 41.83544 -70.04823 458 ft 133 kts 176°
2026-04-29 19:01 41.82659 -70.04778 465 ft 126 kts 176°
2026-04-29 19:01 41.81775 -70.04738 487 ft 126 kts 176°
2026-04-29 19:01 41.80885 -70.04686 515 ft 127 kts 176°
2026-04-29 19:02 41.79982 -70.04641 532 ft 131 kts 176°
2026-04-29 19:02 41.79075 -70.04592 509 ft 134 kts 176°
2026-04-29 19:02 41.78175 -70.04535 500 ft 128 kts 176°
2026-04-29 19:02 41.77391 -70.04487 515 ft 127 kts 176°
2026-04-29 19:03 41.76491 -70.04437 512 ft 132 kts 176°
2026-04-29 19:03 41.75580 -70.04445 497 ft 136 kts 178°
2026-04-29 19:03 41.74658 -70.04438 507 ft 129 kts 178°
2026-04-29 19:03 41.73757 -70.04433 519 ft 129 kts 179°
2026-04-29 19:04 41.72855 -70.04449 520 ft 131 kts 178°
2026-04-29 19:04 41.71941 -70.04466 508 ft 131 kts 179°
2026-04-29 19:04 41.71034 -70.04476 507 ft 132 kts 178°
2026-04-29 19:04 41.70130 -70.04480 514 ft 127 kts 178°
2026-04-29 19:05 41.69224 -70.04501 513 ft 129 kts 179°
2026-04-29 19:05 41.68333 -70.04510 515 ft 127 kts 178°
2026-04-29 19:05 41.67434 -70.04517 516 ft 129 kts 179°
2026-04-29 19:05 41.66521 -70.04524 510 ft 130 kts 179°
2026-04-29 19:06 41.65621 -70.04508 525 ft 129 kts 178°
2026-04-29 19:06 41.64715 -70.04500 519 ft 131 kts 178°
2026-04-29 19:06 41.62897 -70.04503 515 ft 132 kts 179°
2026-04-29 19:07 41.61980 -70.04501 516 ft 132 kts 179°
2026-04-29 19:07 41.61367 -70.04501 515 ft 131 kts 178°
2026-04-29 19:07 41.60151 -70.04523 515 ft 122 kts 178°
2026-04-29 19:07 41.59262 -70.04537 516 ft 127 kts 179°
2026-04-29 19:08 41.58363 -70.04541 523 ft 131 kts 178°
2026-04-29 19:08 41.57443 -70.04565 519 ft 132 kts 179°
2026-04-29 19:08 41.56534 -70.04578 511 ft 131 kts 179°
2026-04-29 19:08 41.55618 -70.04591 512 ft 132 kts 179°
2026-04-29 19:09 41.54698 -70.04613 519 ft 131 kts 179°
2026-04-29 19:09 41.53943 -70.04635 516 ft 134 kts 179°
2026-04-29 19:09 41.53024 -70.04710 519 ft 130 kts 181°
2026-04-29 19:09 41.52103 -70.04777 520 ft 134 kts 181°
2026-04-29 19:10 41.51181 -70.04840 508 ft 133 kts 181°
2026-04-29 19:10 41.50255 -70.04909 513 ft 133 kts 181°
2026-04-29 19:10 41.49346 -70.05097 497 ft 133 kts 192°
2026-04-29 19:10 41.48441 -70.05350 514 ft 134 kts 192°
2026-04-29 19:11 41.47514 -70.05624 502 ft 133 kts 192°
2026-04-29 19:11 41.46603 -70.05900 504 ft 136 kts 192°
2026-04-29 19:11 41.45679 -70.06178 504 ft 135 kts 192°
2026-04-29 19:11 41.44776 -70.06467 506 ft 132 kts 192°
2026-04-29 19:12 41.43867 -70.06749 503 ft 131 kts 192°
2026-04-29 19:12 41.42948 -70.07025 513 ft 135 kts 192°
2026-04-29 19:12 41.42027 -70.07324 505 ft 134 kts 192°
2026-04-29 19:12 41.41431 -70.07508 511 ft 133 kts 192°
2026-04-29 19:13 41.40188 -70.07888 505 ft 135 kts 192°
2026-04-29 19:13 41.39289 -70.08165 509 ft 132 kts 192°
2026-04-29 19:13 41.38377 -70.08440 511 ft 130 kts 192°
2026-04-29 19:13 41.37491 -70.08710 510 ft 133 kts 192°
2026-04-29 19:14 41.36571 -70.08984 505 ft 136 kts 192°
2026-04-29 19:14 41.35705 -70.09469 509 ft 135 kts 211°
2026-04-29 19:14 41.34882 -70.10098 508 ft 136 kts 211°
2026-04-29 19:14 41.34053 -70.10724 508 ft 138 kts 211°
2026-04-29 19:15 41.33222 -70.11339 514 ft 137 kts 211°
2026-04-29 19:15 41.32382 -70.11962 509 ft 134 kts 211°
2026-04-29 19:15 41.31577 -70.12582 511 ft 139 kts 211°
2026-04-29 19:15 41.30738 -70.13230 509 ft 135 kts 211°
2026-04-29 19:16 41.29917 -70.13850 510 ft 136 kts 211°
2026-04-29 19:16 41.29092 -70.14485 513 ft 135 kts 211°
2026-04-29 19:16 41.28270 -70.15115 500 ft 137 kts 211°
2026-04-29 19:16 41.27445 -70.15767 533 ft 138 kts 211°
2026-04-29 19:17 41.26574 -70.16240 411 ft 132 kts 191°
2026-04-29 19:17 41.25698 -70.16067 436 ft 129 kts 139°
2026-04-29 19:17 41.25057 -70.15293 532 ft 123 kts 116°
2026-04-29 19:17 41.24706 -70.14337 583 ft 104 kts 103°
2026-04-29 19:18 41.24529 -70.13451 691 ft 100 kts 95°
2026-04-29 19:18 41.24404 -70.12842 542 ft 104 kts 100°
2026-04-29 19:18 41.24154 -70.11666 407 ft 96 kts 96°
2026-04-29 19:18 41.24059 -70.10807 503 ft 96 kts 92°
2026-04-29 19:19 41.23923 -70.09888 721 ft 90 kts 91°
2026-04-29 19:19 41.23994 -70.08993 554 ft 105 kts 65°
2026-04-29 19:19 41.24328 -70.08008 370 ft 112 kts 48°
2026-04-29 19:19 41.24663 -70.07302 242 ft 62 kts 39°
2026-04-29 19:20 41.24889 -70.07005 118 ft 36 kts 39°
2026-04-29 19:20 41.24997 -70.06857 67 ft 12 kts 44°
2026-04-29 19:20 41.25011 -70.06834 37 ft 0 kts 45°
2026-04-29 19:21 41.25101 -70.06700 166 ft 61 kts 41°
2026-04-29 19:21 41.25538 -70.06063 311 ft 116 kts 45°
2026-04-29 19:21 41.26221 -70.05797 266 ft 119 kts 317°
2026-04-29 19:21 41.26159 -70.06733 430 ft 118 kts 225°
2026-04-29 19:22 41.25633 -70.07519 439 ft 107 kts 229°
2026-04-29 19:22 41.25116 -70.08191 422 ft 101 kts 227°
2026-04-29 19:22 41.24642 -70.08779 655 ft 86 kts 226°
2026-04-29 19:22 41.24204 -70.09292 527 ft 84 kts 226°
2026-04-29 19:23 41.23668 -70.09460 310 ft 89 kts 141°
2026-04-29 19:23 41.23675 -70.08805 245 ft 72 kts 52°
2026-04-29 19:23 41.23995 -70.08357 588 ft 72 kts 46°
2026-04-29 19:23 41.24368 -70.07736 348 ft 93 kts 50°
2026-04-29 19:24 41.24747 -70.07192 157 ft 61 kts 44°
2026-04-29 19:24 41.24955 -70.06908 63 ft 25 kts 40°
2026-04-29 19:24 41.25005 -70.06842 38 ft 0 kts 46°
2026-04-29 19:24 41.25101 -70.06726 169 ft 58 kts 40°
2026-04-29 19:25 41.25568 -70.06121 292 ft 117 kts 44°
2026-04-29 19:25 41.26257 -70.05507 397 ft 120 kts 16°
2026-04-29 19:25 41.27112 -70.05520 425 ft 125 kts
2026-04-29 19:25 41.27955 -70.05565 441 ft 123 kts
2026-04-29 19:26 41.28782 -70.05777 462 ft 133 kts 353°
2026-04-29 19:26 41.29763 -70.06123 498 ft 152 kts 330°
2026-04-29 19:26 41.30491 -70.07014 500 ft 131 kts 311°
2026-04-29 19:26 41.30990 -70.08016 470 ft 130 kts 311°
2026-04-29 19:27 41.31492 -70.09027 462 ft 131 kts 311°
2026-04-29 19:27 41.32001 -70.10036 461 ft 131 kts 311°
2026-04-29 19:27 41.32511 -70.11043 465 ft 131 kts 311°
2026-04-29 19:27 41.33020 -70.12049 467 ft 131 kts 311°
2026-04-29 19:28 41.33531 -70.13052 467 ft 131 kts 311°
2026-04-29 19:28 41.34041 -70.14056 466 ft 131 kts 311°
2026-04-29 19:28 41.34554 -70.15067 465 ft 132 kts 311°
2026-04-29 19:28 41.35077 -70.16073 464 ft 132 kts 311°
2026-04-29 19:29 41.35603 -70.17066 464 ft 131 kts 311°
2026-04-29 19:29 41.36131 -70.18059 463 ft 131 kts 311°
2026-04-29 19:29 41.36668 -70.19052 463 ft 133 kts 311°
2026-04-29 19:29 41.37210 -70.20043 463 ft 132 kts 311°
2026-04-29 19:30 41.37750 -70.21047 462 ft 134 kts 311°
2026-04-29 19:30 41.38296 -70.22055 465 ft 131 kts 316°
2026-04-29 19:30 41.38872 -70.23001 467 ft 131 kts 316°
2026-04-29 19:30 41.39445 -70.23942 464 ft 131 kts 316°
2026-04-29 19:31 41.40027 -70.24889 462 ft 134 kts 316°
2026-04-29 19:31 41.40619 -70.25848 461 ft 134 kts 316°
2026-04-29 19:31 41.41232 -70.26746 462 ft 130 kts 323°
2026-04-29 19:31 41.41896 -70.27584 432 ft 132 kts 323°
2026-04-29 19:32 41.42564 -70.28430 420 ft 132 kts 323°
2026-04-29 19:32 41.43231 -70.29276 413 ft 133 kts 323°
2026-04-29 19:32 41.43888 -70.30117 417 ft 132 kts 323°
2026-04-29 19:32 41.44555 -70.30961 419 ft 132 kts 323°
2026-04-29 19:33 41.45227 -70.31795 432 ft 132 kts 323°
2026-04-29 19:33 41.45900 -70.32635 429 ft 133 kts 323°
2026-04-29 19:33 41.46574 -70.33493 430 ft 135 kts 323°
2026-04-29 19:33 41.47260 -70.34347 432 ft 134 kts 325°
2026-04-29 19:34 41.48004 -70.35013 428 ft 133 kts 332°
2026-04-29 19:34 41.48784 -70.35669 459 ft 132 kts 332°
2026-04-29 19:34 41.49552 -70.36354 457 ft 130 kts 332°
2026-04-29 19:34 41.50300 -70.37050 454 ft 132 kts 332°
2026-04-29 19:35 41.51048 -70.37705 457 ft 129 kts 332°
2026-04-29 19:35 41.51800 -70.38358 454 ft 129 kts 332°
2026-04-29 19:35 41.52549 -70.39041 452 ft 130 kts 332°
2026-04-29 19:35 41.53283 -70.39695 458 ft 128 kts 332°
2026-04-29 19:36 41.54025 -70.40350 460 ft 131 kts 332°
2026-04-29 19:36 41.54777 -70.41028 452 ft 127 kts 332°
2026-04-29 19:36 41.55521 -70.41691 462 ft 123 kts 332°
2026-04-29 19:36 41.56237 -70.42341 466 ft 126 kts 332°
2026-04-29 19:37 41.56958 -70.42996 463 ft 130 kts 332°
2026-04-29 19:37 41.57452 -70.43437 469 ft 127 kts 332°
2026-04-29 19:37 41.58457 -70.44305 516 ft 126 kts 332°
2026-04-29 19:37 41.59190 -70.44953 889 ft 127 kts 332°
2026-04-29 19:38 41.59929 -70.45618 845 ft 127 kts 332°
2026-04-29 19:38 41.60671 -70.46264 808 ft 131 kts 332°
2026-04-29 19:38 41.61423 -70.46913 793 ft 133 kts 331°
2026-04-29 19:38 41.62096 -70.47724 806 ft 133 kts 322°
2026-04-29 19:39 41.62771 -70.48560 848 ft 131 kts 322°
2026-04-29 19:39 41.63450 -70.49371 873 ft 128 kts 322°
2026-04-29 19:39 41.64116 -70.50185 861 ft 128 kts 322°
2026-04-29 19:39 41.64764 -70.51042 908 ft 132 kts 316°
2026-04-29 19:40 41.65373 -70.51930 603 ft 133 kts 322°
2026-04-29 19:40 41.66002 -70.52642 316 ft 91 kts 335°
2026-04-29 19:40 41.66356 -70.52803 220 ft 15 kts 24°
2026-04-29 19:40 41.66394 -70.52753 165 ft 6 kts 76°
2026-04-29 19:41 41.66397 -70.52738 148 ft 0 kts 75°
2026-04-29 19:41 41.66398 -70.52732 149 ft 4 kts 77°
2026-04-29 19:41 41.66390 -70.52672 148 ft 7 kts 101°
2026-04-29 19:41 41.66390 -70.52639 148 ft 0 kts 83°
2026-04-29 19:53 41.66403 -70.52634 148 ft 8 kts 272°
2026-04-29 19:53 41.66395 -70.52714 148 ft 8 kts 249°
2026-04-29 19:53 41.66396 -70.52733 148 ft 0 kts 304°
2026-04-29 19:54 41.66397 -70.52733 168 ft 1 kts 300°
2026-04-29 19:55 41.66398 -70.52765 189 ft 15 kts 237°
2026-04-29 19:55 41.66086 -70.53164 449 ft 99 kts 223°
2026-04-29 19:55 41.65467 -70.53691 559 ft 116 kts 213°
2026-04-29 19:55 41.64751 -70.54221 581 ft 118 kts 213°
2026-04-29 19:56 41.64044 -70.54728 590 ft 111 kts 208°
2026-04-29 19:56 41.63327 -70.54909 583 ft 105 kts 188°
2026-04-29 19:56 41.62585 -70.55037 575 ft 109 kts 188°
2026-04-29 19:56 41.61828 -70.55186 580 ft 111 kts 188°
2026-04-29 19:57 41.61055 -70.55333 578 ft 113 kts 188°
2026-04-29 19:57 41.60536 -70.55421 574 ft 114 kts 188°
2026-04-29 19:57 41.59491 -70.55632 580 ft 114 kts 188°
2026-04-29 19:57 41.58706 -70.55775 579 ft 113 kts 188°
2026-04-29 19:58 41.57926 -70.55918 575 ft 113 kts 188°
2026-04-29 19:58 41.57148 -70.56066 579 ft 113 kts 188°
2026-04-29 19:58 41.56369 -70.56223 579 ft 113 kts 188°
2026-04-29 19:58 41.55601 -70.56365 574 ft 113 kts 188°
2026-04-29 19:59 41.54825 -70.56515 571 ft 113 kts 188°
2026-04-29 19:59 41.54046 -70.56657 577 ft 113 kts 188°
2026-04-29 19:59 41.53266 -70.56805 578 ft 113 kts 188°
2026-04-29 19:59 41.52491 -70.56942 570 ft 111 kts 188°
2026-04-29 20:00 41.51724 -70.57084 574 ft 112 kts 188°
2026-04-29 20:00 41.50950 -70.57228 577 ft 112 kts 188°
2026-04-29 20:00 41.50176 -70.57384 567 ft 113 kts 188°
2026-04-29 20:00 41.49393 -70.57528 565 ft 114 kts 188°
2026-04-29 20:01 41.48606 -70.57684 562 ft 114 kts 188°
2026-04-29 20:01 41.47821 -70.57818 545 ft 114 kts 188°
2026-04-29 20:01 41.47033 -70.57933 544 ft 114 kts 188°
2026-04-29 20:01 41.46249 -70.58083 540 ft 114 kts 188°
2026-04-29 20:02 41.45459 -70.58235 528 ft 115 kts 188°
2026-04-29 20:02 41.44669 -70.58389 532 ft 115 kts 188°
2026-04-29 20:02 41.43890 -70.58557 533 ft 116 kts 188°
2026-04-29 20:02 41.43352 -70.58669 532 ft 116 kts 188°
2026-04-29 20:03 41.42469 -70.59266 544 ft 103 kts 219°
2026-04-29 20:03 41.41938 -70.59870 520 ft 106 kts 224°
2026-04-29 20:03 41.41372 -70.60524 529 ft 109 kts 224°
2026-04-29 20:03 41.40793 -70.61185 533 ft 110 kts 224°
2026-04-29 20:04 41.40213 -70.61852 534 ft 110 kts 224°
2026-04-29 20:04 41.39635 -70.62526 533 ft 111 kts 224°
2026-04-29 20:04 41.38942 -70.63104 475 ft 110 kts 167°
2026-04-29 20:04 41.38451 -70.62708 390 ft 93 kts 111°
2026-04-29 20:05 41.38647 -70.61962 237 ft 71 kts 43°
2026-04-29 20:05 41.38848 -70.61733 135 ft 17 kts 44°
2026-04-29 20:05 41.38893 -70.61672 94 ft 1 kts 46°
2026-04-29 20:05 41.39072 -70.61442 252 ft 74 kts 39°
2026-04-29 20:06 41.39556 -70.60895 663 ft 102 kts 39°
2026-04-29 20:06 41.40181 -70.60309 1029 ft 120 kts 18°
2026-04-29 20:06 41.40974 -70.60581 722 ft 129 kts 334°
2026-04-29 20:06 41.41741 -70.61199 727 ft 138 kts 329°
2026-04-29 20:07 41.42339 -70.62193 745 ft 132 kts 305°
2026-04-29 20:07 41.42799 -70.63252 766 ft 132 kts 305°
2026-04-29 20:07 41.43265 -70.64319 783 ft 133 kts 305°
2026-04-29 20:07 41.43727 -70.65372 788 ft 133 kts 305°
2026-04-29 20:08 41.44193 -70.66440 780 ft 133 kts 305°
2026-04-29 20:08 41.44512 -70.67159 779 ft 134 kts 305°
2026-04-29 20:08 41.45130 -70.68574 766 ft 134 kts 305°
2026-04-29 20:08 41.45603 -70.69641 775 ft 133 kts 305°
2026-04-29 20:09 41.46065 -70.70714 774 ft 133 kts 305°
2026-04-29 20:09 41.46536 -70.71777 773 ft 133 kts 305°
2026-04-29 20:09 41.47002 -70.72848 774 ft 134 kts 305°
2026-04-29 20:09 41.47461 -70.73919 773 ft 133 kts 305°
2026-04-29 20:10 41.47918 -70.74988 774 ft 133 kts 305°
2026-04-29 20:10 41.48383 -70.76051 775 ft 131 kts 305°
2026-04-29 20:10 41.48966 -70.76917 760 ft 138 kts 320°
2026-04-29 20:10 41.49615 -70.77781 763 ft 132 kts 320°
2026-04-29 20:11 41.50252 -70.78637 767 ft 132 kts 320°
2026-04-29 20:11 41.50893 -70.79528 772 ft 134 kts 320°
2026-04-29 20:11 41.51544 -70.80406 778 ft 133 kts 320°
2026-04-29 20:11 41.52193 -70.81282 774 ft 132 kts 320°
2026-04-29 20:12 41.52835 -70.82168 773 ft 133 kts 320°
2026-04-29 20:12 41.53488 -70.83063 771 ft 134 kts 320°
2026-04-29 20:12 41.54134 -70.83964 776 ft 133 kts 320°
2026-04-29 20:12 41.54793 -70.84827 776 ft 133 kts 320°
2026-04-29 20:13 41.55446 -70.85689 777 ft 133 kts 320°
2026-04-29 20:13 41.55875 -70.86284 776 ft 134 kts 320°
2026-04-29 20:13 41.56748 -70.87461 774 ft 132 kts 320°
2026-04-29 20:13 41.57390 -70.88337 775 ft 134 kts 320°
2026-04-29 20:14 41.58055 -70.89229 774 ft 136 kts 320°
2026-04-29 20:14 41.58729 -70.90124 773 ft 136 kts 320°
2026-04-29 20:14 41.59407 -70.90990 768 ft 135 kts 320°
2026-04-29 20:14 41.60082 -70.91854 769 ft 135 kts 320°
2026-04-29 20:15 41.60715 -70.92788 772 ft 135 kts 320°
2026-04-29 20:15 41.61371 -70.93525 741 ft 107 kts 326°
2026-04-29 20:15 41.61911 -70.94010 593 ft 76 kts 350°
2026-04-29 20:15 41.62346 -70.93996 332 ft 53 kts
2026-04-29 20:16 41.62591 -70.93899 251 ft 17 kts 10°
2026-04-29 20:16 41.62649 -70.93869 173 ft 3 kts 353°
2026-04-29 20:16 41.62652 -70.93865 151 ft 1 kts 353°
2026-04-29 20:16 41.62655 -70.93870 169 ft 9 kts 354°
2026-04-29 20:17 41.62840 -70.94064 364 ft 62 kts 242°
2026-04-29 20:17 41.62625 -70.94489 376 ft 40 kts 125°
2026-04-29 20:17 41.62449 -70.94304 391 ft 35 kts 82°
2026-04-29 20:17 41.62442 -70.94116 296 ft 19 kts 36°
2026-04-29 20:18 41.62546 -70.93994 257 ft 20 kts 29°
2026-04-29 20:18 41.62631 -70.93891 226 ft 7 kts 25°
2026-04-29 20:18 41.62651 -70.93868 188 ft 1 kts 22°
2026-04-29 20:18 41.62655 -70.93866 169 ft 1 kts 351°
2026-04-29 20:19 41.62655 -70.93864 158 ft 1 kts 350°
2026-04-29 20:19 41.62655 -70.93862 147 ft 0 kts 351°
2026-04-29 20:19 41.62675 -70.93874 216 ft 24 kts 352°
2026-04-29 20:19 41.62733 -70.94292 469 ft 76 kts 228°
2026-04-29 20:20 41.62403 -70.94387 318 ft 35 kts 70°
2026-04-29 20:20 41.62546 -70.93986 267 ft 40 kts 43°
2026-04-29 20:20 41.62631 -70.93895 212 ft 8 kts 37°
2026-04-29 20:20 41.62650 -70.93865 165 ft 0 kts 350°
2026-04-29 20:21 41.62650 -70.93863 167 ft 1 kts 353°
2026-04-29 20:21 41.62651 -70.93862 147 ft 0 kts 353°
2026-04-29 20:22 41.62731 -70.93808 217 ft 38 kts 74°
2026-04-29 20:22 41.62762 -70.93169 450 ft 83 kts 85°
2026-04-29 20:22 41.62833 -70.92355 990 ft 89 kts 84°
2026-04-29 20:22 41.62874 -70.91498 1073 ft 94 kts 85°
2026-04-29 20:23 41.62917 -70.90599 1054 ft 97 kts 85°
2026-04-29 20:23 41.62958 -70.89701 1061 ft 98 kts 85°
2026-04-29 20:23 41.63007 -70.88775 1052 ft 100 kts 84°
2026-04-29 20:23 41.63058 -70.87847 1053 ft 100 kts 85°
2026-04-29 20:24 41.63096 -70.86911 1053 ft 101 kts 84°
2026-04-29 20:24 41.63140 -70.85970 1054 ft 102 kts 85°
2026-04-29 20:24 41.63177 -70.85022 1059 ft 103 kts 85°
2026-04-29 20:24 41.63209 -70.84069 1063 ft 102 kts 85°
2026-04-29 20:25 41.63257 -70.83122 1055 ft 102 kts 84°
2026-04-29 20:25 41.63298 -70.82171 1061 ft 103 kts 85°
2026-04-29 20:25 41.63344 -70.81213 1059 ft 103 kts 85°
2026-04-29 20:25 41.63382 -70.80258 1056 ft 103 kts 85°
2026-04-29 20:26 41.63413 -70.79304 1057 ft 102 kts 85°
2026-04-29 20:26 41.63431 -70.78358 1061 ft 102 kts 84°
2026-04-29 20:26 41.63464 -70.77413 1060 ft 101 kts 85°
2026-04-29 20:26 41.63503 -70.76484 1063 ft 101 kts 84°
2026-04-29 20:27 41.63542 -70.75534 1062 ft 103 kts 85°
2026-04-29 20:27 41.63566 -70.74890 1063 ft 102 kts 84°
2026-04-29 20:27 41.63616 -70.73636 1082 ft 102 kts 85°
2026-04-29 20:27 41.63642 -70.72688 1080 ft 102 kts 85°
2026-04-29 20:28 41.63679 -70.71742 1081 ft 102 kts 85°
2026-04-29 20:28 41.63709 -70.70798 1082 ft 102 kts 85°
2026-04-29 20:28 41.63748 -70.69851 1086 ft 102 kts 84°
2026-04-29 20:28 41.63779 -70.68908 1091 ft 101 kts 84°
2026-04-29 20:29 41.63834 -70.67974 1095 ft 99 kts 80°
2026-04-29 20:29 41.63928 -70.67057 1083 ft 99 kts 80°
2026-04-29 20:29 41.64033 -70.66144 1079 ft 100 kts 80°
2026-04-29 20:29 41.64129 -70.65225 1087 ft 99 kts 80°
2026-04-29 20:30 41.64274 -70.64337 1092 ft 98 kts 78°
2026-04-29 20:30 41.64392 -70.63427 1074 ft 101 kts 78°
2026-04-29 20:30 41.64512 -70.62500 1082 ft 101 kts 78°
2026-04-29 20:30 41.64624 -70.61574 1091 ft 101 kts 78°
2026-04-29 20:31 41.64731 -70.60644 1083 ft 101 kts 78°
2026-04-29 20:31 41.64923 -70.59786 1085 ft 94 kts 65°
2026-04-29 20:31 41.65177 -70.58963 1082 ft 97 kts 66°
2026-04-29 20:31 41.65434 -70.58122 1084 ft 99 kts 66°
2026-04-29 20:32 41.65684 -70.57273 1084 ft 100 kts 66°
2026-04-29 20:32 41.65953 -70.56416 1090 ft 100 kts 66°
2026-04-29 20:32 41.66115 -70.55536 1076 ft 100 kts 77°
2026-04-29 20:32 41.66154 -70.54875 826 ft 117 kts 83°
2026-04-29 20:33 41.66289 -70.53471 397 ft 94 kts 72°
2026-04-29 20:33 41.66375 -70.52876 193 ft 27 kts 68°
2026-04-29 20:33 41.66398 -70.52752 164 ft 8 kts 98°
2026-04-29 20:33 41.66399 -70.52728 148 ft 0 kts 88°
2026-04-29 20:34 41.66400 -70.52721 148 ft 4 kts 84°
2026-04-29 20:34 41.66405 -70.52673 148 ft 4 kts 79°
2026-04-29 20:34 41.66409 -70.52623 148 ft 6 kts 84°
2026-04-29 20:34 41.66415 -70.52540 147 ft 12 kts 85°
2026-04-29 20:35 41.66422 -70.52414 146 ft 17 kts 85°
2026-04-29 20:35 41.66433 -70.52274 144 ft 12 kts 83°
2026-04-29 20:35 41.66455 -70.52189 143 ft 7 kts 95°
2026-04-29 20:35 41.66465 -70.52149 142 ft 0 kts 41°
2026-04-29 20:36 41.66468 -70.52146 142 ft 0 kts 31°